User: anonymous   Login
Location: Bergnerzell
(49.1816°N, 10.2565°E)
Time: 21:12:37
(UTC+00:00)
Language:

Meteor 1-28 Rocket - Orbit

View from above orbital plane
View from above orbital plane
View from above satellite
View from above satellite

Ground track
Ground track

The orbit data is extracted from the following two-line orbital elements,

1 10114U 77057B   24197.57951298  .00009916  00000-0  36021-3 0  9992
2 10114  97.5124 342.1258 0009197 280.0686  79.9515 15.28460041575822
Epoch (UTC): 15 July 2024 13:54:29
Eccentricity: 0.0009197
inclination: 97.5124°
perigee height: 474 km
apogee height: 487 km
right ascension of ascending node: 342.1258°
argument of perigee: 280.0686°
revolutions per day: 15.28460041
mean anomaly at epoch: 79.9515°
orbit number at epoch: 57582

The dashed part of the orbit path shows where the satellite is in the earth's shadow,  

DLR